Regional Weather Roundup
Issued by NWS

Home | Current Version | Previous Version | Graphics & Text | Print | Product List | Glossary Off
Versions: 1 2 3 4 5 6 7 8 9 10 11 12 13 14 15 16 17 18 19 20 21 22 23 24 25 26 27 28 29 30 31 32 33 34 35 36 37 38 39 40 41 42 43 44 45 46 47 48 49 50

000
ASUS43 KMPX 300101
RWRMN
WEATHER ROUNDUP FOR MINNESOTA
NATIONAL WEATHER SERVICE TWIN CITIES/CHANHASSEN MN
800 PM CDT THU SEP 29 2016


NOTE: "FAIR" INDICATES FEW OR NO CLOUDS BELOW 12,000 FEET WITH NO
SIGNIFICANT WEATHER AND/OR OBSTRUCTIONS TO VISIBILITY. N/A MEANS
CURRENT SKY AND/OR WEATHER CONDITIONS ARE NOT AVAILABLE.

MNZ060>063-068>070-300200-
   Twin Cities Metro

CITY           SKY/WX    TMP DP  RH WIND       PRES   REMARKS
TWIN CITIES    CLEAR     60  50  69 N6        30.39F
ST PAUL        CLEAR     58  51  78 CALM      30.39F
CRYSTAL        CLEAR     56  49  77 CALM      30.38F
BLAINE         CLEAR     57  54  88 NE3       30.39F
LAKEVILLE      CLEAR     55  50  82 CALM      30.39S
EDEN PRAIRIE   CLEAR     60  50  69 N5        30.38S
LAKEVILLE      CLEAR     55  50  82 CALM      30.39S
SOUTH ST PAUL  CLEAR     61  51  70 CALM      30.38S
LAKE ELMO      FAIR      55  52  88 CALM      30.40S
$$
MNZ001>005-007-008-013>017-022>024-027-028-300200-
   Northwest Minnesota

CITY           SKY/WX    TMP DP  RH WIND       PRES   REMARKS
BEMIDJI        CLOUDY    55  48  77 E3        30.43S
HALLOCK        CLEAR     57  48  72 SE6       30.37F
ROSEAU         HAZE      57  48  72 SE7       30.42R VSB 1
WARROAD        CLEAR     54  48  82 SE8       30.44R
THIEF RVR FALL CLEAR     55  46  71 SE10      30.41S
CROOKSTON      CLEAR     55  46  71 SE6       30.39S
FOSSTON        CLEAR     48  41  76 E5        30.42S
DETROIT LAKES  CLEAR     55  45  67 SE5       30.41F
MOORHEAD       CLEAR     55  46  71 E5        30.39S
PARK RAPIDS    CLOUDY    57  43  59 E3        30.42S
MAHNOMEN       FAIR      54  45  71 E6        30.41S
$$
MNZ006-009>011-018-025>026-300200-
   North Central Minnesota

CITY           SKY/WX    TMP DP  RH WIND       PRES   REMARKS
BAUDETTE       CLOUDY    56  47  71 SE6       30.45S
FLAG ISLAND    CLEAR     57  48  72 SE7       30.42S
INTL FALLS     CLOUDY    54  49  83 SE6       30.46F
WASKISH        CLOUDY    55  48  76 CALM      30.45S
BIG FORK       CLOUDY    55  48  76 CALM      30.46S
GRAND RAPIDS   CLOUDY    52  49  89 CALM      30.46S
ORR            CLOUDY    52  46  82 CALM      30.45S
COOK           CLOUDY    54  48  82 CALM      30.47S
WALKER         CLOUDY    54  49  83 CALM      30.43S
$$
MNZ012-019>021-037-300200-
   Northeast Minnesota

CITY           SKY/WX    TMP DP  RH WIND       PRES   REMARKS
DULUTH         PTCLDY    50  47  89 E6        30.46S
ELY            CLOUDY    54  46  76 NE3       30.47S
HIBBING        CLOUDY    53  49  86 CALM      30.45F
EVELETH        CLOUDY    53  49  86 NE3       30.47S
DULUTH HARBOR  CLEAR     55  52  88 NE15      30.46F
TWO HARBORS    CLEAR     54  48  82 N5        30.45F
SILVER BAY     CLEAR     50  48  93 N3        30.46F
GRAND MARAIS     N/A     53  52  96 N3        30.48F
G MARAIS ARPRT CLEAR     45  43  93 N3        30.50S
$$
MNZ029>031-032-039>041-046>048-054>057-064-300200-
   West Central Minnesota

CITY           SKY/WX    TMP DP  RH WIND       PRES   REMARKS
FERGUS FALLS   CLEAR     55  46  71 CALM      30.41S
MORRIS         CLEAR     52  46  82 E7        30.38S
ALEXANDRIA     CLEAR     53  47  79 E3        30.41F
ELBOW LAKE     FAIR      56  47  72 SE8       30.39F
WADENA         CLEAR     52  45  76 E3        30.41F
GLENWOOD       CLEAR     52  46  82 NE5       30.41S
BENSON         CLEAR     55  46  71 SE3       30.39S
ORTONVILLE     CLEAR     57  46  67 CALM      30.37R
MADISON        CLEAR     57  48  72 E3        30.37S
WILLMAR        FAIR      54  48  82 NE5       30.40S
$$
MNZ033>034-036-042>043-049>051-058-059-300200-
   Central Minnesota

CITY           SKY/WX    TMP DP  RH WIND       PRES   REMARKS
ST CLOUD       CLEAR     53  51  93 CALM      30.40S
SAUK CENTRE    FAIR      53  47  82 NE3       30.41S
PAYNESVILLE    CLEAR     53  49  86 CALM      30.40S
AITKIN         CLEAR     50  45  81 CALM      30.42S
PINE RIVER     PTCLDY    50  48  93 CALM      30.45S
BRAINERD       CLEAR     50  49  96 NE3       30.42F
STAPLES        CLEAR     52  46  82 CALM      30.42S
LONG PRAIRIE   FAIR      52  46  82 CALM      30.41F
LITTLE FALLS   CLEAR     52  46  82 CALM      30.41S
LITCHFIELD     CLEAR     57  52  82 CALM      30.40S
BUFFALO        CLEAR     54  49  83 CALM      30.41R
MAPLE LAKE     CLEAR     54  52  92 CALM      30.40F
HUTCHINSON     CLEAR     55  50  86 CALM      30.40S
$$
MNZ037-044-045-052-053-300200-
   East Central Minnesota

CITY           SKY/WX    TMP DP  RH WIND       PRES   REMARKS
PRINCETON      CLEAR     52  48  87 CALM      30.40S
MORA           CLEAR     54  46  76 CALM      30.44R
CAMBRIDGE      CLEAR     54  46  76 CALM      30.39S
MOOSE LAKE     CLEAR     52  46  82 NE5       30.42F
HINCKLEY       FAIR      54  50  87 NE6       30.43R
CLOQUET        CLEAR     52  46  82 E6        30.45S
MCGREGOR       CLEAR     50  46  87 E5        30.45R
$$
MNZ071>073-080-081-089-090-097-098-300200-
   Southwest Minnesota

CITY           SKY/WX    TMP DP  RH WIND       PRES   REMARKS
MONTEVIDEO     CLEAR     54  46  76 SE6       30.39F
GRANITE FALLS  CLEAR     58  49  73 NE7       30.39S
CANBY          CLEAR     56  49  76 CALM      30.38S
MARSHALL       CLEAR     58  48  69 E6        30.37F
REDWOOD FALLS  CLEAR     59  47  64 NE3       30.38S
OLIVIA         CLEAR     55  46  71 CALM      30.38S
PIPESTONE      CLEAR     61  46  59 E3        30.36S
WINDOM         CLEAR     54  46  76 NE3       30.38S
WORTHINGTON    CLEAR     55  48  77 E6        30.38S
JACKSON        CLEAR     54  45  71 E5        30.38S
TRACY          CLEAR     56  50  80 CALM      30.38S
$$
MNZ065>067-074>077-082>085-091>093-300200-
   South Central Minnesota

CITY           SKY/WX    TMP DP  RH WIND       PRES   REMARKS
MANKATO        CLEAR     60  51  72 NE7       30.38F
NEW ULM        CLEAR     59  46  63 E5        30.38S HAZE
ST JAMES       CLEAR     55  48  76 CALM      30.39S
FAIRMONT       CLEAR     58  48  69 NE6       30.37F
GLENCOE        CLEAR     55  53  92 CALM      30.38S
FARIBAULT      CLEAR     54  50  87 CALM      30.38S
OWATONNA       CLEAR     55  46  71 NE3       30.38S
WASECA         CLEAR     54  46  76 N6        30.39R
ALBERT LEA     CLEAR     57  48  72 N5        30.37R
$$
MNZ078>079-086>088-094>096-300200-
   Southeast Minnesota

CITY           SKY/WX    TMP DP  RH WIND       PRES   REMARKS
ROCHESTER      CLEAR     58  50  75 NE8       30.38S
RED WING       CLEAR     57  52  82 CALM      30.36F
STANTON        CLEAR     56  51  81 CALM      30.37S
DODGE CENTER   PTCLDY    57  48  72 N5        30.38S
WINONA         CLEAR     59  54  82 CALM      30.36S
AUSTIN         CLEAR     57  48  72 NE5       30.36S
PRESTON        CLEAR     57  50  76 N6        30.37R
$$
ABBREVIATIONS USED IN REMARKS
   TC - TEMPERATURES IN CELSIUS
  WCI - WIND CHILL INDEX
   HX - HEAT INDEX
  VSB - VISIBILITY
$$




USA.gov is the U.S. government's official web portal to all federal, state and local government web resources and services.